Ellensburg, WA
on Thursday, December 13, 2012

Thursday
Previous Day Next Day
Daily Summary
 ActualAverage (KYKM)Record (KYKM)
Temperature
Mean Temperature °F 28°F  
Max Temperature 32°F 36°F 57°F (1946)
Min Temperature 23°F 21°F -8°F (1972)
Degree Days
Heating Degree Days 38 37  
Month to date heating degree days 458  
Since 1 July heating degree days 1991  
Cooling Degree Days 0 0  
Month to date cooling degree days 0  
Year to date cooling degree days 472  
Moisture
Dew Point 25°F   
Average Humidity 86    
Maximum Humidity 93    
Minimum Humidity 80    
Precipitation
Precipitation 0.00 in 0.04 in 1.30 in (1977)
Month to date precipitation 0.62  
Year to date precipitation 7.34  
Snow
Snow 0.00 in 0.20 in 3.70 in (1961)
Month to date snowfall 3.7  
Year to date snowfall 15.9  
Since 1 July snowfall 7.3  
Snow Depth in   
Wind
Wind Speed 1 mph   
Max Wind Speed 6 mph   
Max Gust Speed mph   
Visibility 4 miles   
Events Fog   

Key: T is trace of precipitation, MM is missing value
Source: NWS Daily Summary
Time(PST)TemperatureDew PointHumidity Pressure Visibility Wind DirectionWind SpeedGust SpeedPrecipitationEvents Conditions
12:53 AM 28.0°F 24.1°F 85% 30.00 in 10.0 miles ENE 3.5 mph - N/A   Partly Cloudy
1:53 AM 26.1°F 21.0°F 81% 30.01 in 10.0 miles Calm Calm - N/A   Clear
2:53 AM 26.1°F 21.0°F 81% 30.02 in 10.0 miles Calm Calm - N/A   Clear
3:53 AM 24.1°F 19.9°F 84% 30.02 in 10.0 miles NNE 3.5 mph - N/A   Clear
4:53 AM 24.1°F 19.9°F 84% 30.03 in 10.0 miles Calm Calm - N/A   Clear
5:53 AM 24.1°F 19.0°F 81% 30.04 in 10.0 miles Calm Calm - N/A   Partly Cloudy
6:24 AM 23.0°F 17.6°F 80% 29.99 in 1.8 miles East 5.8 mph - N/A   Haze
6:26 AM 24.8°F 19.4°F 80% 29.99 in 0.8 miles East 5.8 mph - N/A   Haze
6:53 AM 28.0°F 25.0°F 88% 30.04 in 0.2 miles East 4.6 mph - N/A Fog Light Freezing Fog
7:53 AM 28.9°F 26.1°F 89% 30.04 in 0.2 miles Calm Calm - N/A Fog Light Freezing Fog
8:53 AM 28.9°F 26.1°F 89% 30.05 in 0.2 miles Calm Calm - N/A Fog Light Freezing Fog
9:53 AM 30.0°F 26.1°F 85% 30.04 in 0.2 miles Calm Calm - N/A Fog Light Freezing Fog
10:21 AM 28.4°F 26.6°F 93% 29.98 in 0.8 miles Calm Calm - N/A   Mist
10:42 AM 28.4°F 26.6°F 93% 29.97 in 0.2 miles Calm Calm - N/A Fog Light Freezing Fog
10:53 AM 30.0°F 26.1°F 85% 30.02 in 0.8 miles Calm Calm - N/A   Overcast
11:15 AM 30.2°F 26.6°F 86% 29.96 in 1.2 miles Calm Calm - N/A   Overcast
11:24 AM 30.2°F 26.6°F 86% 29.96 in 1.0 miles Calm Calm - N/A   Overcast
11:43 AM 30.2°F 26.6°F 86% 29.95 in 1.2 miles Calm Calm - N/A   Overcast
11:53 AM 30.0°F 27.0°F 88% 30.01 in 2.5 miles Calm Calm - N/A   Overcast
12:04 PM 30.2°F 26.6°F 86% 29.95 in 1.2 miles Calm Calm - N/A   Overcast
12:26 PM 30.2°F 26.6°F 86% 29.94 in 0.8 miles Calm Calm - N/A   Overcast
12:53 PM 30.0°F 27.0°F 88% 29.98 in 1.2 miles Calm Calm - N/A   Overcast
1:04 PM 30.2°F 26.6°F 86% 29.92 in 1.0 miles Calm Calm - N/A   Overcast
1:10 PM 30.2°F 26.6°F 86% 29.92 in 2.0 miles Calm Calm - N/A   Overcast
1:20 PM 30.2°F 26.6°F 86% 29.91 in 5.0 miles Calm Calm - N/A   Overcast
1:36 PM 30.2°F 26.6°F 86% 29.91 in 1.8 miles Calm Calm - N/A   Overcast
1:41 PM 30.2°F 26.6°F 86% 29.90 in 3.0 miles Calm Calm - N/A   Overcast
1:53 PM 30.0°F 26.1°F 85% 29.96 in 4.0 miles Calm Calm - N/A   Overcast
3:24 PM 30.2°F 26.6°F 86% 29.88 in 1.0 miles Calm Calm - N/A   Overcast
3:32 PM 30.2°F 26.6°F 86% 29.88 in 0.8 miles Calm Calm - N/A   Mist
5:53 PM 30.0°F 27.0°F 88% 29.92 in 0.5 miles Calm Calm - N/A Fog Light Freezing Fog
6:37 PM 30.2°F 26.6°F 86% 29.84 in 1.2 miles East 3.5 mph - N/A   Overcast
6:42 PM 30.2°F 26.6°F 86% 29.84 in 3.0 miles Calm Calm - N/A   Overcast
6:53 PM 30.9°F 28.0°F 89% 29.90 in 6.0 miles East 3.5 mph - N/A   Overcast
7:53 PM 30.9°F 27.0°F 85% 29.89 in 6.0 miles Calm Calm - N/A   Overcast
8:53 PM 32.0°F 27.0°F 82% 29.88 in 5.0 miles Calm Calm - N/A   Haze
9:53 PM 32.0°F 27.0°F 82% 29.88 in 10.0 miles Calm Calm - N/A   Overcast
10:53 PM 30.9°F 27.0°F 85% 29.87 in 10.0 miles SE 3.5 mph - N/A   Overcast
11:01 PM 30.2°F 26.6°F 86% 29.83 in 10.0 miles SE 3.5 mph - N/A   Overcast
11:33 PM 30.2°F 26.6°F 86% 29.82 in 9.0 miles Calm Calm - N/A   Overcast
11:53 PM 32.0°F 28.0°F 85% 29.86 in 7.0 miles Calm Calm - N/A   Overcast
Moon Phase
Dec. 13 Dec. 20 Dec. 28 Jan. 04 Jan. 11
Sunrise:07:40 AM (PST) Moon Rise:07:52 AM (PST)12/13
Sunset:04:13 PM (PST) Moon Set:05:03 PM (PST)12/13

Copyright © 2014 The Weather Underground, Inc.